Regional Weather Roundup
Issued by NWS

Home | Current Version | Previous Version | Text Only | Print | Product List | Glossary Off
Versions: 1 2 3 4 5 6 7 8 9 10 11 12 13 14 15 16 17 18 19 20 21 22 23 24 25 26 27 28 29 30 31 32 33 34 35 36 37 38 39 40 41 42 43 44 45 46 47 48 49 50

000
ASUS44 KMEG 171210
RWRTN
TENNESSEE HOURLY STATE WEATHER ROUNDUP
NATIONAL WEATHER SERVICE MEMPHIS TN
700 AM CDT THU AUG 17 2017

TNZ002-004-019-021-049-052-054-088>092-171300-
WEST TENNESSEE

CITY           SKY/WX    TMP DP  RH WIND       PRES   REMARKS
MEMPHIS INTL   CLOUDY    78  75  90 SW8       29.99R
NWS MEMPHIS      N/A     78 N/A N/A MISG        N/A
JACKSON        CLOUDY    76  75  97 SW8       29.99S
DYERSBURG      CLOUDY    76  74  93 SW6       29.98S
COVINGTON      CLOUDY    77  75  94 SW5       29.98R
UNION CITY     MOCLDY    75  73  94 S7        29.95S
PARIS          CLEAR     75  73  94 SW9       29.97R
LEXINGTON      MOCLDY    73  73 100 S5        30.00S
SELMER         CLOUDY    75  73  94 VRB6      30.01S
SAVANNAH       CLOUDY    75  73  94 SW9       30.02R
$$

TNZ008-025-027-028-033-062-065-066-171300-
NORTH MIDDLE TENNESSEE

CITY           SKY/WX    TMP DP  RH WIND       PRES   REMARKS
NASHVILLE      PTCLDY    76  73  91 S6        30.03R
PORTLAND       CLEAR     75  73  94 S8        30.01R
CLARKSVILLE    PTCLDY    75  72  90 S6        29.99S
SMYRNA         CLEAR     75  73  93 S3        30.04R
COOKEVILLE     SUNNY     73  73 100 S7        30.07R
GALLATIN       CLEAR     75  73  94 CALM      30.04S
CROSSVILLE     PTSUNNY   72  71  97 SW5       30.13R
$$

TNZ061-075-076-078-094-096-097-171300-
SOUTH MIDDLE TENNESSEE

CITY           SKY/WX    TMP DP  RH WIND       PRES   REMARKS
FAYETTEVILLE   PTCLDY    73  73 100 SE3       30.06S FOG
TULLAHOMA      PTCLDY    73  72  94 S3        30.09R
WINCHESTER     PTCLDY    73  72  94 CALM      30.08R
MCMINNVILLE    PTSUNNY   75  75 100 CALM      30.08R
COLUMBIA       PTCLDY    75  75 100 S3        30.01S
SHELBYVILLE    CLEAR     73  73 100 CALM      30.05S
$$

TNZ017-018-042-046-047-171300-
NORTHEAST TENNESSEE

CITY           SKY/WX    TMP DP  RH WIND       PRES   REMARKS
TRI CITIES     FOG       70  70 100 CALM      30.11R VSB 1/16
ELIZABETHTON   CLOUDY    72  68  88 CALM      30.12R
$$

TNZ012-013-036-069-073-074-171300-
CENTRAL EAST TENNESSEE

CITY           SKY/WX    TMP DP  RH WIND       PRES   REMARKS
KNOXVILLE      CLOUDY    74  70  87 CALM      30.07R
OAK RIDGE      CLOUDY    75  72  90 CALM      30.08R
DOWNTOWN KNOXV PTSUNNY   73  73 100 CALM      30.07R
GATLINBURG     PTSUNNY   70  70 100 CALM      30.08R
MORRISTOWN     PTSUNNY   73  72  94 CALM      30.09R
$$

TNZ083-085-099-171300-
SOUTHEAST TENNESSEE

CITY           SKY/WX    TMP DP  RH WIND       PRES   REMARKS
CHATTANOOGA    MOSUNNY   77  74  90 CALM      30.08R
DAYTON         FOG       73  73 100 CALM      30.07R VSB 1/4
$$

SKY/WX REPORTED AS FAIR MEANS FEW OR NO CLOUDS BELOW
12 THOUSAND FEET.





USA.gov is the U.S. government's official web portal to all federal, state and local government web resources and services.